User: anonymous   Login
Location: Domont
(49.0278°N, 2.3264°E)
Time: 16:59:03
(UTC+00:00)
Language:

Resurs 01 Rocket - Orbit

View from above orbital plane
View from above orbital plane
View from above satellite
View from above satellite

Ground track
Ground track

The orbit data is extracted from the following two-line orbital elements,

1 23343U 94074B   22021.17631258  .00000136  00000-0  26465-4 0  9996
2 23343  97.9166  77.1169 0008191  75.4750 349.8558 14.76938506464637
Epoch (UTC): 21 January 2022 04:13:53
Eccentricity: 0.0008191
inclination: 97.9166°
perigee height: 633 km
apogee height: 645 km
right ascension of ascending node: 77.1169°
argument of perigee: 75.4750°
revolutions per day: 14.76938506
mean anomaly at epoch: 349.8558°
orbit number at epoch: 46463

The dashed part of the orbit path shows where the satellite is in the earth's shadow,  

DLR